Regional Weather Roundup
Issued by NWS

Home | Current Version | Previous Version | Text Only | Print | Product List | Glossary Off
Versions: 1 2 3 4 5 6 7 8 9 10 11 12 13 14 15 16 17 18 19 20 21 22 23 24 25 26 27 28 29 30 31 32 33 34 35 36 37 38 39 40 41 42 43 44 45 46 47 48 49 50

056
ASUS45 KTFX 242110
RWRMT
MONTANA REGIONAL WEATHER ROUNDUP
NATIONAL WEATHER SERVICE GREAT FALLS MT
300 PM MDT SAT JUN 24 2017

NOTE: "FAIR" INDICATES FEW OR NO CLOUDS BELOW 12000 FEET WITH NO
SIGNIFICANT WEATHER AND/OR OBSTRUCTIONS TO VISIBILITY.

MTZ001>007-043-242200-
WEST OF THE DIVIDE

CITY           SKY/WX    TMP DP  RH WIND       PRES   REMARKS
KALISPELL      SUNNY     77  41  27 VRB3      30.24F
MISSOULA       SUNNY     78  35  21 VRB3      30.23F
BUTTE          SUNNY     73  29  19 VRB5      30.32F
MULLAN PASS    SUNNY     67  32  27 VRB5      30.37S
ANACONDA         N/A     72  37  28 NE8G16    30.29F
DEER LODGE       N/A     73  37  27 NW3       30.32F
EUREKA           N/A     79  28  15 MISG      30.24F
HAMILTON         N/A     77  36  22 N5        30.24F
$$

MTZ008-052>055-242200-
SOUTHWEST MONTANA

CITY           SKY/WX    TMP DP  RH WIND       PRES   REMARKS
BOZEMAN        SUNNY     74  33  22 VRB6      30.30F
DILLON         SUNNY     74  32  21 MISG      30.29F
W YELLOWSTONE  SUNNY     70  30  23 VRB6G15   30.35S
ENNIS          SUNNY     72  34  25 N9G15     30.35F
THREE FORKS      N/A     74  36  25 E2        30.25F
$$

MTZ009-010-012-014-046-048-049-054-242200-
EAST SLOPES AND CENTRAL MONTANA

CITY           SKY/WX    TMP DP  RH WIND       PRES   REMARKS
CUT BANK       PTSUNNY   68  39  34 NE7       30.32F
GREAT FALLS    MOSUNNY   72  35  25 CALM      30.30F
MALMSTROM AFB  MOSUNNY   71  36  28 E3        30.30F
HELENA         SUNNY     77  34  21 N9        30.26F
CHOTEAU          N/A     70  39  32 E7        30.32F
$$

MTZ011-013-016-021-045-047-050-051-242200-
NORTH CENTRAL MONTANA

CITY           SKY/WX    TMP DP  RH WIND       PRES   REMARKS
HAVRE          MOSUNNY   72  36  26 CALM      30.30F
LEWISTOWN      SUNNY     69  37  30 VRB6      30.33F
N BAR RANCH    PTSUNNY   66  34  30 N6G16     30.36S
CHINOOK          N/A     72  36  26 N8        30.29F
FORT BENTON      N/A     75  37  25 CALM      30.31F
$$

MTZ017>020-022>027-061-062-242200-
NORTHEAST MONTANA

CITY           SKY/WX    TMP DP  RH WIND       PRES   REMARKS
GLASGOW        PTSUNNY   71  31  22 N6        30.28F
JORDAN           N/A     75  28  17 NW12G21   30.28F
SIDNEY         MOSUNNY   69  32  25 N18G25    30.28S
WOLF POINT     PTSUNNY   75  30  19 NW13      30.27F
MALTA          SUNNY     70  30  23 N9        30.29S
PLENTYWOOD       N/A     66  34  30 N18G24    30.27F
POPLAR           N/A     70  32  24 N10G20    30.28S
$$

MTZ028>42-056>058-242200-
SOUTHCENTRAL AND SOUTHEAST MONTANA

CITY           SKY/WX    TMP DP  RH WIND       PRES   REMARKS
BAKER          SUNNY     69  28  21 NW16G26   30.29F
BILLINGS       MOSUNNY   75  32  20 VRB7      30.29F
LIVINGSTON     SUNNY     74  37  26 N6        30.30F
MILES CITY     MOSUNNY   74  26  16 NW16G23   30.27F
BIG TIMBER     SUNNY     70  32  24 VRB5G12   30.33F
FORSYTH          N/A     72  32  23 CALM      30.27F
ROUNDUP          N/A     72  31  22 NW8       30.19F
$$

REGIONAL REPORTS...DAKOTAS

CITY           SKY/WX    TMP DP  RH WIND       PRES   REMARKS
WILLISTON      MOSUNNY   69  34  27 N13G28    30.28S
MINOT          CLOUDY    59  40  49 NW17G26   30.23R
DICKINSON      MOSUNNY   64  30  27 N21G30    30.25S
BEACH            N/A     66  30  26 N17G24    30.32S
CROSBY         PTSUNNY   63  37  39 N20G32    30.27F
TIOGA          PTSUNNY   61  36  39 N22       30.29R
WATFORD CITY     N/A     63  37  39 N18G25    30.27S
BISMARCK       CLOUDY    63  40  42 NW16G23   30.23S
GRAND FORKS    CLOUDY    56  51  84 NW20G29   30.07R
FARGO          CLOUDY    59  50  72 NW21      30.08R
BUFFALO SD       N/A     71  29  21 N24G32    30.20S
RAPID CITY     MOSUNNY   75  31  19 N18G31    30.26S
$$

REGIONAL REPORTS...WYOMING/IDAHO/WASHINGTON

CITY           SKY/WX    TMP DP  RH WIND       PRES   REMARKS
GILLETTE       MOSUNNY   72  30  21 NW15G24   30.31F
SHERIDAN       SUNNY     73  35  25 N8G17     30.31F
BUFFALO WY     CLOUDY    64  34  32 CALM      30.36F
CODY           SUNNY     71  35  26 N9        30.32F
YELLOWSTONE LA   N/A     63  37  38 E5        30.43F
IDAHO FALLS    SUNNY     79  39  23 VRB6      30.25F
SALMON         SUNNY     79  23  12 W3        30.20F
BOISE          SUNNY     84  37  18 W9        30.15F
SPOKANE        MOSUNNY   82  31  15 VRB5      30.22F
$$

REGIONAL REPORTS...ALBERTA

CITY           SKY/WX    TMP DP  RH WIND       PRES   REMARKS
EDMONTON       MOSUNNY   68  46  45 NW3       30.26S
CALGARY        PTSUNNY   66  37  34 NW6       30.34S
LETHBRIDGE     PTSUNNY   70  43  37 E6        30.32S
MEDICINE HAT   MOSUNNY   66  45  45 SW8       30.31F
WATERTON GATE    N/A     68  43  40 N6          N/A
ONEFOUR          N/A     64  39  39 N6          N/A
$$

REGIONAL REPORTS...SASKATCHEWAN

CITY           SKY/WX    TMP DP  RH WIND       PRES   REMARKS
SWIFT CURRENT  PTSUNNY   64  39  39 NW14      30.27F
REGINA         MOSUNNY   68  39  34 NW13G22   30.25F
SASKATOON      TSTM      61  43  51 E12       30.24S
CYPRESS HILLS    N/A     63  34  34 NW7         N/A
VAL MARIE        N/A     72  32  23 NW7         N/A
ROCKGLEN         N/A     64  36  34 N10G17      N/A
ASSINIBOIA       N/A     72  43  35 NW9         N/A
$$




USA.gov is the U.S. government's official web portal to all federal, state and local government web resources and services.